Regional Weather Roundup
Issued by NWS

Home | Current Version | Previous Version | Graphics & Text | Print | Product List | Glossary Off
Versions: 1 2 3 4 5 6 7 8 9 10 11 12 13 14 15 16 17 18 19 20 21 22 23 24 25 26 27 28 29 30 31 32 33 34 35 36 37 38 39 40 41 42 43 44 45 46 47 48 49 50

000
ASUS43 KTOP 161959
RWRKS

WEATHER ROUNDUP FOR KANSAS
NATIONAL WEATHER SERVICE GOODLAND KS
200 PM CST MON JAN 16 2017

NOTE:  "FAIR" INDICATES FEW OR NO CLOUDS BELOW 12,000 FEET WITH NO
SIGNIFICANT WEATHER AND/OR OBSTRUCTIONS TO VISIBILITY.

KSZ001>006-013>018-027>032-041>047-162100-
NORTHWEST KANSAS

CITY           SKY/WX    TMP DP  RH WIND       PRES   REMARKS
GOODLAND       CLOUDY    33  32  96 N17       29.93S FOG     WCI  22
HAYS           CLOUDY    33  31  92 N14       29.88S WCI  23
HILL CITY      MIX PCPN  34  33  96 N10       29.90F FOG     WCI  26
RUSSELL        CLOUDY    32  32 100 N12       29.86S FOG     WCI  23
$$

KSZ061>065-074>080-084>089-162100-
SOUTHWEST KANSAS

CITY           SKY/WX    TMP DP  RH WIND       PRES   REMARKS
DODGE CITY     CLOUDY    33  32  96 NW12      29.89S FOG     WCI  24
ELKHART          N/A     35  26  69 NW15        N/A  WCI  25
GARDEN CITY    CLOUDY    34  31  88 NW16      29.90S WCI  24
GREAT BEND     CLOUDY    33  31  92 NW10      29.88R WCI  25
LIBERAL        CLOUDY    36  30  80 MISG      29.93S
$$

KSZ066>073-081>083-090>101-162100-
SOUTHEAST KANSAS

CITY           SKY/WX    TMP DP  RH WIND       PRES   REMARKS
CHANUTE        CLOUDY    47  43  86 SW15      29.85F
HUTCHINSON     CLOUDY    36  35  96 W12       29.85R WCI  28
MEDICINE LODGE   N/A     37  33  85 NW12      29.87S WCI  29
NEWTON         LGT RAIN  37  36  96 SW14      29.83S WCI  28
PARSONS        CLOUDY    50  45  83 SW10      29.87F
WICHITA INTL   CLOUDY    39  37  92 SW12      29.85S WCI  32
WICHITA JABRA  CLOUDY    38  37  97 SW13      29.85S WCI  30
WINFIELD       CLOUDY    39  36  89 SW15      29.88F WCI  31
$$

KSZ007>012-019>026-033>040-048>060-102>105-162100-
NORTHEAST KANSAS

CITY           SKY/WX    TMP DP  RH WIND       PRES   REMARKS
CONCORDIA      CLOUDY    32  32 100 N9        29.84S FOG
EMPORIA        LGT RAIN  40  39  97 SW9       29.83S
LAWRENCE       CLOUDY    47  46  97 S5        29.83F
MANHATTAN      LGT RAIN  38  38 100 NE5       29.81F
OLATHE IND     PTSUNNY   50  46  86 S16       29.83F
OLATHE EXE     PTSUNNY   50  48  93 S16G22    29.82F
SALINA         LGT RAIN  36  34  92 NW8       29.84S FOG
TOPEKA BILLARD CLOUDY    49  44  83 S13       29.82S
TOPEKA FORBES  LGT RAIN  47  42  83 S14       29.82S
$$



USA.gov is the U.S. government's official web portal to all federal, state and local government web resources and services.